Location: Sungai Bunut
(2.6333°N, 113.7333°E)
Time: 18:20:59
(UTC+00:00)

Tiros 1 despin weight - Pass Details

Date: 06 December 2023
Orbit: 581 x 624 km, 48.2° (Epoch: 21 February)

Event Time Altitude Azimuth Distance (km) Brightness Sun altitude
Rises 19:47:14 0° 284° (WNW) 2,835 - -35.2°
Reaches altitude 10° 19:50:49 10° 254° (WSW) 1,948 - -34.3°
Maximum altitude 19:52:39 12° 230° (SW) 1,806 - -33.9°
Drops below altitude 10° 19:54:30 10° 206° (SSW) 1,962 - -33.5°
Exits shadow 19:56:38 - 185° (S) 2,431 ? -33.0°
Sets 19:58:11 0° 175° (S) 2,881 ? -32.7°
